NOAA NWS Hourly Roundups by Site

Regional Weather Roundup for Omaha, NE

To Select Another Site Choose from List

Select Site:  

993
ASUS43 KOAX 211413
RWRNE

WEATHER ROUNDUP FOR NEBRASKA
NATIONAL WEATHER SERVICE OMAHA NE
900 AM CDT FRI JUN 21 2024

NOTES: SATELLITE DATA IS BEING USED TO AUGMENT CLOUD COVER ABOVE
       12000 FEET.
       "FAIR" INDICATES FEW OR NO CLOUDS BELOW 12,000 FEET WITH NO
       SIGNIFICANT WEATHER AND/OR OBSTRUCTIONS TO VISIBILITY.


NEZ001>004-019>022-054>056-211500-
NEBRASKA PANHANDLE

CITY           SKY/WX    TMP DP  RH WIND       PRES   REMARKS
SCOTTSBLUFF    CLOUDY    65  62  90 NE6       30.10S
ALLIANCE       CLOUDY    62  62 100 N6        30.07R
CHADRON        CLOUDY    60  60 100 E6        30.10S
GORDON         LGT RAIN  61  61  98 E10       30.09F
KIMBALL        CLOUDY    62  62  99 CALM      30.12F FOG
SIDNEY         CLOUDY    64  62  93 E6        30.07S FOG
$$

NEZ057>060-069>072-079>082-211500-
SOUTHWEST NEBRASKA

CITY           SKY/WX    TMP DP  RH WIND       PRES   REMARKS
NORTH PLATTE   SUNNY     73  66  78 S14       30.04F
GRANT          MOSUNNY   72  68  88 S14       30.05S
IMPERIAL       SUNNY     74  64  71 S13G24    30.05S
LEXINGTON      SUNNY     75  66  73 S18G25    30.07F
MCCOOK         SUNNY     76  66  71 S14G28    30.05F
OGALLALA       MOSUNNY   73  67  83 S5        30.06S
$$

NEZ005>010-023>029-035>040-094-211500-
NORTH CENTRAL NEBRASKA

CITY           SKY/WX    TMP DP  RH WIND       PRES   REMARKS
VALENTINE      CLOUDY    65  63  93 E7        30.11R
AINSWORTH      CLOUDY    65  64  97 E7        30.10R
BROKEN BOW     SUNNY     75  66  73 MISG      30.07F
O`NEILL        CLOUDY    67  66  97 NE6       30.09F
ORD            SUNNY     77  67  71 S15G23    30.06F
THEDFORD       CLOUDY    67  65  92 E10       30.09F
$$

NEZ041-046>049-061>064-073>077-083>087-211500-
SOUTH CENTRAL NEBRASKA

CITY           SKY/WX    TMP DP  RH WIND       PRES   REMARKS
GRAND ISLAND   SUNNY     78  68  71 S14       30.11F
AURORA         SUNNY     76  69  79 S12G18    30.11F
HASTINGS       SUNNY     76  68  76 S10G20    30.12F
HEBRON         MOSUNNY   80  69  68 S13       30.14S
HOLDREGE       SUNNY     77  66  70 S18G25    30.09F
KEARNEY        SUNNY     76  67  73 S21       30.10F
YORK           SUNNY     75  70  83 S12       30.12S
$$

NEZ011>018-030>034-042>045-211500-
NORTHEAST NEBRASKA

CITY           SKY/WX    TMP DP  RH WIND       PRES   REMARKS
NORFOLK        PTSUNNY   77  69  76 S12       30.09F
ALBION         SUNNY     76  69  78 S12       30.09F
BLAIR          SUNNY     78  71  79 S12       30.12S
COLUMBUS       SUNNY     78  70  76 S15       30.11F
FREMONT        SUNNY     79  69  72 S7        30.11F
TEKAMAH        SUNNY     81  72  74 S13       30.10S
$$

NEZ050>053-065>068-078-088>093-211500-
SOUTHEAST NEBRASKA

CITY           SKY/WX    TMP DP  RH WIND       PRES   REMARKS
LINCOLN        MOSUNNY   80  70  71 S12       30.12S
OMAHA EPPLEY   MOSUNNY   79  71  76 S13       30.11F
BEATRICE       SUNNY     79  72  77 S13       30.13F
FALLS CITY     SUNNY     80  72  76 S10       30.15S
NEBRASKA CITY  MOSUNNY   77  71  82 S10       30.15F
PLATTSMOUTH    SUNNY     78  71  79 S12       30.14S
$$

NEZ044-045-051>053-067-211500-
OMAHA AREA

CITY           SKY/WX    TMP DP  RH WIND       PRES   REMARKS
OMAHA EPPLEY   MOSUNNY   79  71  76 S13       30.11F
BLAIR          SUNNY     78  71  79 S12       30.12S
FREMONT        SUNNY     79  69  72 S7        30.11F
MILLARD        SUNNY     79  70  73 S9        30.12F
OFFUTT AFB     MOSUNNY   78  71  78 S9        30.12F
PLATTSMOUTH    SUNNY     78  71  79 S12       30.14S
WAHOO          SUNNY     79  71  77 S9        30.12S
$$



 

View Past Reports for Omaha, NE.

Products Courtesy of NOAA-NWS
NWS Information Parsing Script by Ken True at Saratoga Weather - Script by SE Lincoln Weather.

This data is offered only as a general guide to local weather conditions. It should not be relied upon in lieu of officially disseminated weather information for determining possible risk to persons or property. This site, including all information contained therein, is made available as is without warranties of any kind, either express or implied. The Vicarage Weather Feed© includes links to other sites for user convenience only. The content of any linked third-party site is not controlled by The Vicarage Weather Feed©. Access to any third-party website through The Vicarage Weather Feed©, regardless of whether or not the third-party site is a linked site, is entirely at the users own risk. Externally sourced content or material is excluded from The Vicarage Weather Feed© copyright and is the copyright and property of the respective provider. Skywarn® and the Skywarn® logo are registered trademarks of the National Oceanic and Atmospheric Administration, used with permission.